User: anonymous   Login
Location: Unspecified
(0.0000°N, 0.0000°E)
Time: 18:58:18
(UTC+00:00)
Language:

Picosat 3 - Orbit

View from above orbital plane
View from above orbital plane
View from above satellite
View from above satellite

Ground track
Ground track

The orbit data is extracted from the following two-line orbital elements,

1 26091U 00004J   17084.74624626 +.00000275 +00000-0 +89351-4 0  9993
2 26091 100.1874 157.9079 0028464 332.5329 027.4352 14.48560188901558
Epoch (UTC): 25 March 2017 17:54:35
Eccentricity: 0.0028464
inclination: 100.1874°
perigee height: 710 km
apogee height: 750 km
right ascension of ascending node: 157.9079°
argument of perigee: 332.5329°
revolutions per day: 14.48560188
mean anomaly at epoch: 27.4352°
orbit number at epoch: 90155

The dashed part of the orbit path shows where the satellite is in the earth's shadow,  

DLR